[[{"header":{"parameterUnit":"m.s-1","parameterCategory":1,"la1":30.2991,"la2":30.254,"lo1":-89.0895,"lo2":-89.0444,"dy":0.0017,"dx":0.0017,"nx":28,"ny":28,"refTime":"2025-04-26T21:00:00:Z","depth":0,"parameterNumber":2,"parameterNumberName":"U-component_of_WINDS"},"data":[0,0,0,0,0,0,0,0,0,0,0,0,0,0,0,0,0,0,0,0,0,0,0,0,0,0,0,0,0,0,0,0,0,0,0,0,0,0,0,0,0,0,0,0,0,0,0,0,0,0,0,0,0,0,0,0,0,0,0.9832,0.9832,0,0.9803,0.9803,0.9803,0.9732,0.973,0.9729,0.9727,0.9701,0.9702,0.9703,0,0,0,0,0,0,0,0,0,0,0,0,0,0.9827,0.9828,0.9833,0.9832,0.9832,0.9804,0.9803,0.9803,0.9732,0.973,0.9729,0.9727,0.9701,0.9702,0.9703,0,0,0,0,0,0,0,0,0,0,0,0,0,0.9817,0.9828,0.9833,0.9793,0.9789,0.9804,0.9803,0.9803,0.9733,0.973,0.9728,0.9726,0.9701,0.9702,0.9703,0.9754,0,0,0.9706,0.9706,0,0,0,0,0,0,0,0,0.9818,0.9818,0.9799,0.9796,0.9792,0.9769,0.9792,0.9787,0.9733,0.9754,0.9727,0.9725,0.9726,0.9725,0.9724,0.9753,0.9752,0.9706,0.9707,0.9707,0.9707,0,0,0,0,0,0,0,0.9819,0.9818,0.9821,0.9799,0.9794,0.9777,0.9773,0.979,0.9753,0.9752,0.9747,0.9744,0.9723,0.9723,0.9723,0.9751,0.9706,0.9707,0.9708,0.9708,0.9817,0.9819,0,0,0,0,0,0,0.9825,0.9819,0.9822,0.982,0.9799,0.9779,0.9774,0.9779,0.9753,0.9746,0.9746,0.9741,0.9723,0.9722,0.9722,0.9778,0.9707,0.9708,0.9709,0.9815,0.9818,0.982,0,0,0,0,0,0,0.9825,0.9826,0.9823,0.9818,0.9817,0.9781,0.9786,0.9779,0.9779,0.9748,0.9741,0.9753,0.9721,0.972,0.9746,0.9776,0.9709,0.9709,0.9812,0.9816,0.9819,0.9892,0,0,0,0,0,0,0.9825,0.9826,0.9846,0.9819,0.9817,0.9847,0.9788,0.978,0.9781,0.9774,0.9753,0.9747,0.9719,0.9744,0.9747,0.9776,0.971,0.9809,0.9814,0.9818,0.9887,0.9898,0.9907,0,0,0,0,0,0.9825,0.9869,0.9847,0.9848,0.984,0.9849,0.9848,0.9814,0.9784,0.9802,0.9782,0.9748,0.9772,0.9748,0.975,0.978,0.9807,0.9813,0.9818,0.9882,0.9895,0.9907,0,0,0,0,0,0,0.9902,0.9865,0.984,0.9876,0.9866,0.9837,0.986,0.983,0.9829,0.9823,0.9781,0.9777,0.9807,0.9796,0.9769,0.9827,0.9784,0.979,0.9833,0.9845,0.9855,0.9857,0.9711,0,0,0,0,0,0.9922,0.9932,0.99,0.9935,0.9931,0.9896,0.9899,0.9873,0.9862,0.9858,0.9839,0.983,0.9835,0.9839,0.9843,0.9885,0.9878,0.9906,0.9916,0.9925,0.993,0.9949,0.996,0.9837,0.9837,0.9837,0,0,0.9966,0.9947,0.9956,0.9949,0.9939,0.9949,0.9894,0.9908,0.9915,0.986,0.9882,0.9868,0.9854,0.9887,0.9901,0.9879,0.9962,0.9931,0.9938,0.9939,0.9955,0.9967,0.9977,0.984,0.984,0.9839,0,0,1.005,1.0038,1.0064,1.0053,1.0037,1.0013,1.0019,0.9994,0.9982,1.0003,0.9961,0.9969,0.998,0.9971,0.9968,1.0046,1.0014,1.0048,1.01,1.0119,1.0129,1.0137,1.0163,1.0173,1.0054,1.0054,1.0054,0,1.0107,1.0121,1.0082,1.0098,1.0095,1.0043,1.0069,1.0061,1.0047,1.0047,1.0022,1.0032,1.002,1.0048,1.0067,1.0067,1.0072,1.005,1.013,1.0138,1.0145,1.0169,1.0179,1.0058,1.0057,1.0057,1.0057,0,1.019,1.02,1.0223,1.0208,1.0209,1.023,1.0194,1.0199,1.0172,1.0151,1.0171,1.0154,1.0152,1.0157,1.0133,1.0182,1.0168,1.0138,1.0094,1.0162,1.0184,1.0193,1.0064,1.0062,1.0061,1.006,0,0,1.0323,1.0284,1.0293,1.0284,1.0261,1.0268,1.0286,1.0281,1.0286,1.0277,1.029,1.0299,1.0269,1.0266,1.024,1.0256,1.0316,1.0223,1.0222,1.024,1.0366,1.0389,1.04,1.0294,1.0296,1.0297,1.0367,0,1.0401,1.0428,1.0392,1.0427,1.0435,1.0384,1.0399,1.0387,1.0367,1.037,1.0349,1.0355,1.0316,1.0313,1.0328,1.0306,1.0341,1.03,1.0306,1.0306,1.0309,1.0412,1.0436,1.0502,1.0375,1.0377,1.0378,0,1.0495,1.0488,1.0524,1.0495,1.0497,1.0511,1.0503,1.0507,1.0491,1.0475,1.047,1.0437,1.0452,1.041,1.0429,1.0403,1.0403,1.0392,1.0394,1.0392,1.0346,1.0412,1.0523,1.0532,1.0391,1.039,1.0389,0,1.0586,1.0586,1.0606,1.0601,1.0569,1.0579,1.0566,1.0548,1.0546,1.0539,1.0538,1.0534,1.0531,1.0528,1.0495,1.0468,1.0518,1.0473,1.0504,1.0505,1.0517,1.0517,1.0628,1.0519,1.0519,1.0519,1.0519,0,1.0676,1.0699,1.0646,1.0659,1.0683,1.0641,1.0666,1.0648,1.0631,1.0639,1.0596,1.0604,1.056,1.0564,1.0538,1.0556,1.0556,1.0544,1.0536,1.0547,1.0548,1.0546,1.054,1.0522,1.0521,1.052,1.052,0,1.0782,1.0747,1.0766,1.0732,1.0724,1.0743,1.0715,1.0724,1.0701,1.0711,1.0711,1.0674,1.0676,1.0642,1.0638,1.062,1.065,1.0635,1.0655,1.065,1.0682,1.0679,1.0795,1.0807,1.0692,1.0693,1.0694,0,1.0841,1.0857,1.0824,1.0825,1.0814,1.0817,1.0814,1.0773,1.0773,1.0753,1.0765,1.0763,1.0758,1.0763,1.0736,1.0732,1.0716,1.0757,1.0715,1.0724,1.0714,1.0713,1.0714,1.0766,1.0767,1.0768,1.0769,0,1.0948,1.0929,1.0927,1.0918,1.0916,1.0907,1.0896,1.09,1.0854,1.0856,1.0855,1.0852,1.0846,1.0843,1.0833,1.082,1.0787,1.0783,1.0789,1.08,1.0809,1.0802,1.0677,1.078,1.0779,1.0778,1.0778,1.0777,1.1031,1.1042,1.1019,1.1017,1.1004,1.0993,1.1,1.0976,1.0975,1.0965,1.0941,1.0944,1.0925,1.0908,1.0898,1.09,1.0879,1.089,1.0892,1.0895,1.09,1.081,1.0898,1.0898,1.0897,1.0897,1.0897,0,1.1134,1.1117,1.1115,1.1099,1.1097,1.1064,1.1049,1.105,1.1053,1.1037,1.1033,1.1032,1.1028,1.1,1.0994,1.1,1.0985,1.1,1.0999,1.0996,1.0919,1.0913,1.1012,1.1012,1.1012,1.1012,1.1012,1.1012,1.1188,1.1203,1.1182,1.119,1.1172,1.1173,1.1167,1.1157,1.1144,1.1144,1.114,1.1121,1.11,1.1091,1.1086,1.1078,1.1077,1.1097,1.1083,1.1013,1.1001,1.0991,1.0985,1.1097,1.1097,1.1159,1.116,1.116]},{"header":{"parameterUnit":"m.s-1","parameterCategory":1,"la1":30.2991,"la2":30.254,"lo1":-89.0895,"lo2":-89.0444,"dy":0.0017,"dx":0.0017,"nx":28,"ny":28,"refTime":"2025-04-26T21:00:00:Z","depth":0,"parameterNumber":3,"parameterNumberName":"V-component_of_WINDS"},"data":[0,0,0,0,0,0,0,0,0,0,0,0,0,0,0,0,0,0,0,0,0,0,0,0,0,0,0,0,0,0,0,0,0,0,0,0,0,0,0,0,0,0,0,0,0,0,0,0,0,0,0,0,0,0,0,0,0,0,1.5119,1.512,0,1.5194,1.5195,1.5196,1.5197,1.5196,1.5195,1.5194,1.5271,1.5274,1.5277,0,0,0,0,0,0,0,0,0,0,0,0,0,1.4975,1.4977,1.5119,1.512,1.5121,1.5194,1.5195,1.5196,1.5197,1.5196,1.5195,1.5194,1.5271,1.5274,1.5278,0,0,0,0,0,0,0,0,0,0,0,0,0,1.5042,1.4978,1.5119,1.513,1.5132,1.5194,1.5195,1.5197,1.5197,1.5196,1.5195,1.5193,1.5269,1.5274,1.5278,1.5334,0,0,1.5292,1.5293,0,0,0,0,0,0,0,0,1.5039,1.5048,1.5127,1.5129,1.5131,1.5185,1.5173,1.5243,1.5198,1.5173,1.5194,1.5193,1.5244,1.525,1.5268,1.5338,1.5341,1.5292,1.5295,1.5296,1.5298,0,0,0,0,0,0,0,1.5034,1.5044,1.5149,1.5129,1.5131,1.5131,1.5139,1.5186,1.5215,1.5175,1.5175,1.5184,1.5245,1.5263,1.5269,1.5342,1.5292,1.5296,1.5298,1.53,1.5461,1.5462,0,0,0,0,0,0,1.5027,1.5041,1.5146,1.5151,1.5081,1.5135,1.5144,1.5169,1.5215,1.522,1.5185,1.5184,1.5256,1.5264,1.5272,1.534,1.5296,1.5301,1.5303,1.5459,1.5461,1.5463,0,0,0,0,0,0,1.5024,1.5036,1.5143,1.5096,1.5109,1.5139,1.5167,1.5171,1.519,1.5223,1.5228,1.5199,1.5256,1.5266,1.5318,1.5343,1.5303,1.5307,1.5457,1.546,1.5462,1.5477,0,0,0,0,0,0,1.502,1.5035,1.5057,1.5096,1.5112,1.5189,1.5169,1.5174,1.5198,1.5197,1.5237,1.5242,1.5255,1.5312,1.5323,1.5348,1.531,1.5455,1.5458,1.5461,1.5474,1.548,1.5484,0,0,0,0,0,1.5015,1.5058,1.5058,1.5071,1.514,1.519,1.5199,1.5213,1.52,1.5222,1.5242,1.5241,1.5338,1.5317,1.533,1.5357,1.5454,1.5458,1.5461,1.5472,1.5479,1.5484,0,0,0,0,0,0,1.5021,1.5064,1.5064,1.5122,1.5152,1.519,1.5218,1.522,1.5255,1.5252,1.5268,1.5277,1.5329,1.5348,1.5324,1.5413,1.5394,1.5401,1.5399,1.5405,1.541,1.5404,1.5314,0,0,0,0,0,1.503,1.5067,1.5102,1.5149,1.5165,1.5189,1.5211,1.522,1.5252,1.5265,1.5289,1.532,1.5358,1.5382,1.5419,1.5477,1.5486,1.5502,1.5506,1.551,1.5516,1.5547,1.5555,1.5475,1.5475,1.5475,0,0,1.5047,1.5075,1.5097,1.5152,1.5176,1.5214,1.52,1.5241,1.5269,1.5271,1.5322,1.5341,1.5377,1.5432,1.5458,1.5449,1.5539,1.5515,1.5518,1.5521,1.5552,1.5559,1.5566,1.5477,1.5477,1.5477,0,0,1.5098,1.5123,1.5165,1.519,1.5227,1.5243,1.5253,1.529,1.5303,1.5355,1.5357,1.539,1.5455,1.548,1.5501,1.5561,1.5561,1.5572,1.5598,1.5628,1.5634,1.564,1.5661,1.5668,1.5578,1.5578,1.5578,0,1.5115,1.5173,1.5187,1.5228,1.5251,1.5254,1.5297,1.532,1.5367,1.5384,1.5373,1.5454,1.5479,1.554,1.5554,1.5571,1.5583,1.5568,1.5632,1.5638,1.5644,1.5664,1.5672,1.5579,1.5579,1.5579,1.5578,0,1.5191,1.5231,1.5261,1.5306,1.5333,1.5374,1.5394,1.542,1.5426,1.5442,1.5494,1.5523,1.5565,1.558,1.5587,1.5642,1.5636,1.5629,1.5611,1.5652,1.5671,1.5679,1.558,1.558,1.558,1.5579,0,0,1.5249,1.5301,1.5312,1.5332,1.5373,1.5404,1.5446,1.5487,1.5508,1.554,1.5575,1.5629,1.5623,1.5647,1.5656,1.5683,1.5728,1.5673,1.5674,1.5682,1.579,1.5795,1.5804,1.5728,1.5729,1.573,1.5787,0,1.5304,1.5378,1.5392,1.5456,1.5493,1.5496,1.5532,1.5561,1.5577,1.561,1.5628,1.5666,1.5655,1.567,1.5696,1.5717,1.575,1.5713,1.576,1.5762,1.5751,1.5814,1.582,1.5872,1.5795,1.5796,1.5797,0,1.5379,1.5413,1.5481,1.5516,1.5532,1.5564,1.5603,1.5634,1.5667,1.5677,1.5703,1.5709,1.5752,1.5732,1.579,1.5765,1.5785,1.5798,1.58,1.5805,1.5782,1.5821,1.5889,1.5897,1.5809,1.5808,1.5807,0,1.5414,1.5477,1.5525,1.5542,1.5585,1.5608,1.5626,1.5658,1.5681,1.5715,1.573,1.5768,1.5789,1.5818,1.5834,1.5817,1.5891,1.5872,1.59,1.59,1.5916,1.5915,1.5988,1.5929,1.5929,1.5929,1.5929,0,1.5474,1.5515,1.5541,1.5571,1.5617,1.5632,1.5677,1.5696,1.5723,1.5757,1.5762,1.5793,1.5811,1.5845,1.5857,1.5904,1.5913,1.5922,1.5925,1.5922,1.5921,1.5935,1.5932,1.5931,1.593,1.593,1.593,0,1.5521,1.554,1.5593,1.5629,1.5639,1.5671,1.5702,1.5731,1.5747,1.5789,1.58,1.5825,1.5865,1.5883,1.5932,1.5941,1.5994,1.5994,1.5983,1.5984,1.6011,1.6008,1.6096,1.6108,1.6041,1.6042,1.6042,0,1.5558,1.559,1.5629,1.5652,1.5671,1.5708,1.5732,1.5747,1.5772,1.5811,1.5835,1.5875,1.5908,1.5971,1.5994,1.6031,1.6033,1.6061,1.6038,1.6034,1.6033,1.6031,1.6034,1.6065,1.6066,1.6066,1.6067,0,1.5622,1.563,1.5664,1.5702,1.573,1.5761,1.5791,1.5809,1.5829,1.5857,1.5897,1.5923,1.5973,1.6012,1.6051,1.607,1.6072,1.6074,1.6082,1.6079,1.6071,1.6076,1.5994,1.6072,1.6071,1.6071,1.6071,1.607,1.5665,1.5693,1.5725,1.5763,1.5787,1.5815,1.5844,1.5863,1.5897,1.5939,1.5946,1.599,1.6021,1.6073,1.6094,1.6127,1.6121,1.6133,1.6136,1.6139,1.614,1.6066,1.6135,1.6134,1.6134,1.6134,1.6134,0,1.5729,1.5749,1.5784,1.5826,1.5855,1.5854,1.5887,1.5912,1.595,1.5979,1.6011,1.6057,1.6096,1.6121,1.6159,1.6182,1.6183,1.6191,1.619,1.6194,1.6144,1.6133,1.6189,1.6189,1.6189,1.6189,1.6189,1.6189,1.5765,1.5813,1.5824,1.5883,1.5903,1.5946,1.5965,1.599,1.6013,1.6065,1.6096,1.6113,1.614,1.6181,1.6216,1.6222,1.6236,1.6244,1.625,1.6203,1.6198,1.6192,1.6182,1.6247,1.6247,1.6297,1.6297,1.6298]}]]